Location: downtown San Diego
(32.7310°N, 117.1990°W)
Time: 02:08:36
(UTC-07:00)

COSMOS 2455 - Pass Details

Date: 19 May 2017
Orbit: 901 x 909 km, 67.1° (Epoch: 26 September)

Event Time Altitude Azimuth Distance (km) Brightness Sun altitude
Rises 22:22:58 0° 328° (NNW) 3,531 7.2 -27.2°
Reaches altitude 10° 22:25:32 10° 323° (NW) 2,587 6.2 -27.6°
Maximum altitude 22:31:18 50° 250° (WSW) 1,139 3.3 -28.3°
Enters shadow 22:31:57 48° 229° (SW) 1,168 3.3 -28.4°
